Location: Unspecified
(29.5298°N, 0.0000°E)
Time: 03:12:06
(UTC+00:00)

MOZHAYETS 4 - Visible Passes

Search period start: 04 April 2026 00:00
Search period end: 14 April 2026 00:00
Orbit: 642 x 659 km, 98.3° (Epoch: 29 March)

Date Brightness Start Highest point End Pass type
(mag) Time Alt. Az. Time Alt. Az. Time Alt. Az.
4 Apr 10.4 04:21:33 10° ESE 04:24:56 21° ENE 04:28:20 10° NNE visible
5 Apr 9.0 04:47:10 10° SE 04:51:25 43° ENE 04:55:39 10° N visible
6 Apr 7.7 05:13:28 10° SSE 05:17:59 88° W 05:22:29 10° NNW visible
6 Apr 10.8 18:48:59 10° NNW 18:52:02 19° WNW 18:55:06 10° WSW visible
7 Apr 11.0 04:06:08 10° E 04:08:21 14° ENE 04:10:34 10° NE visible
8 Apr 10.0 04:30:59 10° SE 04:34:45 27° ENE 04:38:31 10° NNE visible
9 Apr 8.5 04:56:52 10° SSE 05:01:15 56° ENE 05:05:38 10° N visible
10 Apr 11.0 18:59:22 10° NW 19:01:48 15° WNW 19:04:14 10° WSW visible
11 Apr 10.8 04:15:11 10° ESE 04:18:07 17° ENE 04:21:02 10° NNE visible
12 Apr 9.6 04:40:30 10° SE 04:44:32 34° ENE 04:48:35 10° N visible
13 Apr 8.0 05:06:36 10° SSE 05:11:03 74° ENE 05:15:30 10° N visible
13 Apr 10.6 18:41:40 10° NNW 18:45:09 23° WNW 18:48:38 10° WSW visible
